Tracking 22459 objects as of 3-Mar-2021
HD Live streaming from Space Station
objects crossing your sky now

BREEZE-M DEB

Track BREEZE-M DEB now!
10-day predictions


NORAD ID: 38557
Int'l Code: 2006-006CX
Perigee: 485.1 km
Apogee: 13,706.6 km
Inclination: 51.8 °
Period: 259.2 minutes
Semi major axis: 13466 km
RCS: 0.032 m2 (small)
Launch date: February 28, 2006
Source: Commonwealth of Independent States (former USSR) (CIS)
Launch site: TYURATAM MISSILE AND SPACE COMPLEX (TTMTR)

Note: This is SATELLITE DEBRIS
aabbcc
Your satellite tracking list
Your tracking list is empty




NASA's NSSDC Master Catalog

Two Line Element Set (TLE):
1 38557U 06006CX  21056.80593051  .00001100  00000-0  13167-2 0  9997
2 38557  51.7788 234.4481 4908928 220.2750  90.5499  5.55526550226981
Source of the keplerian elements: AFSPC